Tracking 33407 objects as of 5-Mar-2026
HD Live streaming from Space Station
objects crossing your sky now

CZ-3B DEB

Track CZ-3B DEB now!


NORAD ID: 40185
Int'l Code: 2011-077J
Perigee: 465.3 km
Apogee: 41,307.2 km
Inclination: 25.2 °
Period: 746.4 minutes
Semi major axis: 27257 km
RCS: Unknown
Launch date: December 19, 2011
Source: People's Republic of China (PRC)
Launch site: Xichang Space Center, China (XSC)

Note: This is SATELLITE DEBRIS
Your satellite tracking list
Your tracking list is empty




NASA's NSSDC Master Catalog

Two Line Element Set (TLE):
1 40185U 11077J   26063.62277181  .00000595  00000-0  26319-2 0  9997
2 40185  25.1873 270.7599 7491929 207.8779  73.9789  1.92920929 83317
Source of the keplerian elements: AFSPC